Regional Weather Roundup
Issued by NWS

Home | Current Version | Previous Version | Text Only | Print | Product List | Glossary Off
Versions: 1 2 3 4 5 6 7 8 9 10 11 12 13 14 15 16 17 18 19 20 21 22 23 24 25 26 27 28 29 30 31 32 33 34 35 36 37 38 39 40 41 42 43 44 45 46 47 48 49 50

000
ASUS45 KCYS 091210
RWRWY

WYOMING REGIONAL WEATHER ROUNDUP
NATIONAL WEATHER SERVICE CHEYENNE WY
500 AM MST FRI DEC 09 2016

NOTE:  "FAIR" INDICATES FEW OR NO CLOUDS BELOW 12,000 FEET
WITH NO SIGNIFICANT WEATHER AND/OR OBSTRUCTIONS TO VISIBILITY.

WYZ001-091300-
YELLOWSTONE NATIONAL PARK

CITY           SKY/WX    TMP DP  RH WIND       PRES   REMARKS
LK YELLOWSTONE   N/A     11   9  92 CALM      29.99S
6HR MIN TEMP:   7; 6HR MAX TEMP:  11; 6HR PCP:  0.06;

W YELLOWSTONE  NOT AVBL

$$
WYZ002>013-054>058-071-098>099-091300-
NORTHERN WYOMING

CITY           SKY/WX    TMP DP  RH WIND       PRES   REMARKS
JACKSON        CLOUDY    14  12  92 N9        30.06R WCI   2
CODY           FLURRIES  -1  -5  82 NE5       30.11S WCI -11
GREYBULL       CLOUDY     8  -1  66 NW7       30.19S WCI  -3
6HR MIN TEMP:   6; 6HR MAX TEMP:  10;

WORLAND        FAIR       1  -3  83 CALM      30.19R
6HR MIN TEMP:   0; 6HR MAX TEMP:   6;

SHERIDAN       FAIR       4  -2  76 CALM      30.21F
6HR MIN TEMP:  -2; 6HR MAX TEMP:   4;

BUFFALO        CLOUDY     0  -5  79 MISG      30.12R
6HR MIN TEMP:  -2; 6HR MAX TEMP:   1;

GILLETTE       CLOUDY    -1  -5  82 NW3       30.16S
6HR MIN TEMP:  -3; 6HR MAX TEMP:   2;

HULETT         CLOUDY    -4  -8  84 MISG      30.18F
NEWCASTLE      FLURRIES   9   1  72 NW7       30.16S WCI  -3

$$
WYZ014>020-022>026-101>103-091300-
CENTRAL WYOMING

CITY           SKY/WX    TMP DP  RH WIND       PRES   REMARKS
BIG PINEY      LGT SNOW  10   7  87 CALM      30.10S FOG
6HR MIN TEMP:   9; 6HR MAX TEMP:  10; 6HR PCP:  0.07;

PINEDALE       LGT SNOW  10   9  92 N7        30.10F WCI   0
DUBOIS         CLOUDY    27  18  69 N15G23    29.94R WCI  15
LANDER         FAIR       2  -3  80 NW5       30.03R WCI  -8
6HR MIN TEMP:  -1; 6HR MAX TEMP:   4;

RIVERTON       FAIR       2  -2  83 N5        30.04R WCI  -8
6HR MIN TEMP:   0; 6HR MAX TEMP:   5;

CASPER         FAIR      -9 -14  78 NW12      30.05R WCI -28
6HR MIN TEMP: -11; 6HR MAX TEMP:  -4;

DOUGLAS        MOCLDY     2  -3  80 N7        30.06R WCI -11
6HR MIN TEMP:  -1; 6HR MAX TEMP:   8;


$$
WYZ021-027>030-104>119-091300-
SOUTHERN WYOMING

CITY           SKY/WX    TMP DP  RH WIND       PRES   REMARKS
EVANSTON       SNOW      31  28  89 SW18      30.12S VSB 1/2 WCI  19
6HR MIN TEMP:  21; 6HR MAX TEMP:  31; 6HR PCP: TRACE;

FORT BRIDGER   FLURRIES  33  33 100 W18G26    30.12S WCI  21
ROCK SPRINGS   LGT SNOW  12   9  87 CALM      30.11R FOG
6HR MIN TEMP:   9; 6HR MAX TEMP:  12; 6HR PCP: TRACE;

DIXON          CLOUDY    30  17  56 SW9G16    30.18R WCI  22
RAWLINS        CLOUDY    28  18  66 W28G38    30.04R WCI  13
6HR MIN TEMP:  24; 6HR MAX TEMP:  29; 6HR PCP: TRACE;

SARATOGA       FAIR      30  21  69 SW22G30   30.04R WCI  17
LARAMIE        MOCLDY    28  20  71 SW13      30.01R WCI  17
6HR MIN TEMP:  21; 6HR MAX TEMP:  28;

CHEYENNE       FAIR      14   7  73 E6        29.99R WCI   5
6HR MIN TEMP:  10; 6HR MAX TEMP:  16;

TORRINGTON     FAIR      11   5  77 E9        30.07F WCI  -2
6HR MIN TEMP:   6; 6HR MAX TEMP:  11;

PINE BLUFFS    FAIR      10   5  79 S8        30.06F WCI  -1

$$



USA.gov is the U.S. government's official web portal to all federal, state and local government web resources and services.